contact:dominique.lefevre@mio.osupytheas.fr, maurice.libes@osupytheas.fr, didier.mallarino@osupytheas.fr
Project:EMSO http://www.emso-fr.org/EMSO-France
Depth: 2436.0 m
Title:EMSO Ligure Ouest : Data MII capteur AQUADOPP
Date,Latitude,Longitude,X_East,Y_North,Z_Up,Amplitude_X,Amplitude_Y,Amplitude_Z,Batterie,SoundSpeed,Heading,Pitch,Roll,Pressure,TIS,Speed,Direction
, degrees North, degrees East, m.s-1, m.s-1,m.s-1, 1, 1, 1, Volt, m.s-1, degree, degree, degree, dbar, degree_C, m.s-1, degree
2023-02-21T00:04:03,42.805,6.029,-0.012,0.017,-0.012,111.0,109.0,107.0,13.4,1505.2,318.5,-0.7,1.8,2471.006,13.29,0.02,324.8
2023-02-21T00:07:03,42.805,6.029,-0.021,0.015,-0.044,110.0,109.0,105.0,13.4,1505.2,335.6,-0.7,1.8,2471.013,13.29,0.025,305.5
2023-02-21T00:10:03,42.805,6.029,-0.008,0.005,-0.018,111.0,108.0,107.0,13.3,1505.2,338.3,-0.8,1.8,2471.004,13.29,0.009,302.0
2023-02-21T00:13:03,42.805,6.029,-0.011,0.023,0.018,109.0,108.0,106.0,13.3,1505.2,325.7,-0.8,1.8,2471.009,13.29,0.025,334.4
2023-02-21T00:16:03,42.805,6.029,-0.025,0.016,-0.027,109.0,108.0,106.0,13.3,1505.2,337.8,-0.8,1.8,2470.97,13.29,0.029,302.6
2023-02-21T00:19:03,42.805,6.029,-0.028,0.009,-0.009,110.0,110.0,107.0,13.4,1505.2,318.1,-0.7,1.8,2470.961,13.29,0.029,287.8
2023-02-21T00:22:03,42.805,6.029,-0.012,0.012,-0.002,110.0,110.0,107.0,13.4,1505.2,337.0,-0.7,1.8,2470.966,13.29,0.016,315.0
2023-02-21T00:25:03,42.805,6.029,-0.02,0.011,-0.018,109.0,110.0,107.0,13.3,1505.2,319.8,-0.8,1.8,2470.963,13.29,0.022,298.8
2023-02-21T00:28:03,42.805,6.029,-0.014,0.007,0.007,109.0,109.0,107.0,13.4,1505.2,316.1,-0.8,1.8,2470.997,13.29,0.015,296.6
2023-02-21T00:31:03,42.805,6.029,-0.025,0.019,0.007,110.0,108.0,107.0,13.3,1505.2,323.6,-0.7,1.8,2470.961,13.29,0.031,307.2
2023-02-21T00:34:03,42.805,6.029,-0.033,0.006,-0.01,109.0,110.0,106.0,13.4,1505.2,316.7,-0.8,1.8,2470.981,13.29,0.033,280.3
2023-02-21T00:37:03,42.805,6.029,-0.009,0.019,-0.017,110.0,110.0,107.0,13.3,1505.2,317.6,-0.8,1.9,2470.962,13.29,0.021,334.7
2023-02-21T00:40:03,42.805,6.029,-0.019,0.029,-0.029,107.0,108.0,106.0,13.4,1505.2,319.2,-0.8,1.8,2470.945,13.29,0.034,326.8
2023-02-21T00:43:03,42.805,6.029,-0.002,0.015,-0.043,108.0,108.0,106.0,13.3,1505.2,330.8,-0.8,1.8,2470.967,13.29,0.015,352.4
2023-02-21T00:46:03,42.805,6.029,-0.012,0.031,0.008,109.0,107.0,105.0,13.4,1505.2,335.4,-0.8,1.8,2470.919,13.29,0.033,338.8
2023-02-21T00:49:03,42.805,6.029,-0.013,0.006,-0.003,108.0,108.0,106.0,13.4,1505.2,323.2,-0.7,1.9,2470.952,13.29,0.014,294.8
2023-02-21T00:52:03,42.805,6.029,0.001,-0.013,-0.025,108.0,108.0,106.0,13.4,1505.2,333.4,-0.8,1.8,2470.988,13.29,0.013,175.6
2023-02-21T00:55:03,42.805,6.029,-0.011,0.014,-0.012,107.0,109.0,106.0,13.4,1505.2,332.6,-0.8,1.8,2470.991,13.29,0.017,321.8
2023-02-21T00:58:03,42.805,6.029,-0.018,0.019,-0.025,109.0,109.0,106.0,13.4,1505.2,322.5,-0.7,1.8,2470.948,13.29,0.026,316.5
2023-02-21T01:04:03,42.805,6.029,-0.013,0.015,-0.022,110.0,109.0,107.0,13.4,1505.2,335.7,-0.8,1.8,2470.976,13.29,0.019,319.1
2023-02-21T01:07:02,42.805,6.029,-0.013,0.023,0.0,109.0,108.0,106.0,13.4,1505.2,338.5,-0.8,1.8,2470.952,13.29,0.026,330.5
2023-02-21T01:10:03,42.805,6.029,-0.045,0.021,-0.02,108.0,108.0,107.0,13.4,1505.2,319.9,-0.8,1.8,2470.919,13.29,0.049,295.0
2023-02-21T01:13:03,42.805,6.029,-0.018,0.018,0.002,109.0,108.0,105.0,13.4,1505.2,323.6,-0.8,1.8,2470.943,13.29,0.025,315.0
2023-02-21T01:16:03,42.805,6.029,-0.013,0.02,-0.005,108.0,109.0,105.0,13.4,1505.2,317.8,-0.8,1.8,2470.959,13.29,0.023,327.0
2023-02-21T01:19:03,42.805,6.029,-0.011,0.009,-0.011,109.0,108.0,106.0,13.4,1505.2,327.6,-0.8,1.8,2470.932,13.29,0.014,309.3
2023-02-21T01:22:03,42.805,6.029,-0.018,0.007,-0.018,108.0,108.0,107.0,13.4,1505.2,326.0,-0.8,1.8,2470.936,13.29,0.019,291.2
2023-02-21T01:25:03,42.805,6.029,-0.049,0.012,-0.011,107.0,108.0,105.0,13.3,1505.2,321.9,-0.8,1.8,2470.934,13.29,0.05,283.8
2023-02-21T01:28:03,42.805,6.029,-0.009,0.011,-0.008,108.0,107.0,106.0,13.4,1505.2,320.3,-0.8,1.8,2470.908,13.29,0.014,320.7
2023-02-21T01:31:03,42.805,6.029,-0.023,-0.011,-0.015,111.0,109.0,105.0,13.4,1505.2,324.9,-0.8,1.8,2470.906,13.29,0.025,244.4
2023-02-21T01:34:03,42.805,6.029,-0.002,0.019,-0.005,109.0,108.0,106.0,13.4,1505.2,331.0,-0.8,1.8,2470.924,13.29,0.019,354.0
2023-02-21T01:37:03,42.805,6.029,0.0,0.031,0.008,109.0,109.0,106.0,13.4,1505.2,317.1,-0.8,1.8,2470.903,13.29,0.03,0.0
2023-02-21T01:40:03,42.805,6.029,-0.021,-0.02,-0.043,110.0,108.0,106.0,13.3,1505.2,325.5,-0.8,1.8,2470.904,13.29,0.028,226.4
2023-02-21T01:43:03,42.805,6.029,-0.039,0.005,-0.006,109.0,106.0,105.0,13.3,1505.2,317.7,-0.8,1.8,2470.938,13.29,0.039,277.3
2023-02-21T01:46:03,42.805,6.029,-0.034,0.022,0.012,109.0,109.0,106.0,13.3,1505.2,320.5,-0.8,1.8,2470.925,13.29,0.04,302.9
2023-02-21T01:49:03,42.805,6.029,-0.014,0.017,-0.012,108.0,107.0,105.0,13.4,1505.2,324.1,-0.8,1.8,2470.911,13.29,0.022,320.5
2023-02-21T01:52:03,42.805,6.029,-0.025,0.01,0.029,110.0,108.0,106.0,13.4,1505.2,320.1,-0.7,1.8,2470.908,13.29,0.026,291.8
2023-02-21T01:55:03,42.805,6.029,-0.001,0.006,-0.008,109.0,108.0,105.0,13.3,1505.2,321.3,-0.7,1.8,2470.911,13.29,0.006,350.5
2023-02-21T01:58:03,42.805,6.029,-0.021,0.013,0.003,109.0,108.0,106.0,13.4,1505.2,329.9,-0.8,1.8,2470.866,13.29,0.024,301.8
2023-02-21T02:04:03,42.805,6.029,-0.019,0.0,-0.03,109.0,108.0,107.0,13.3,1505.2,319.3,-0.7,1.8,2470.956,13.29,0.019,270.0
2023-02-21T02:07:03,42.805,6.029,-0.012,0.025,0.008,109.0,108.0,105.0,13.4,1505.2,324.1,-0.8,1.9,2470.959,13.29,0.027,334.4
2023-02-21T02:10:03,42.805,6.029,-0.027,0.002,-0.002,108.0,108.0,106.0,13.4,1505.2,324.9,-0.8,1.8,2470.938,13.29,0.027,274.2
2023-02-21T02:13:03,42.805,6.029,-0.015,0.001,-0.02,109.0,107.0,106.0,13.4,1505.2,323.7,-0.7,1.8,2470.948,13.29,0.015,273.8
2023-02-21T02:16:03,42.805,6.029,-0.026,0.0,-0.016,110.0,108.0,105.0,13.3,1505.2,327.7,-0.8,1.8,2470.901,13.29,0.026,270.0
2023-02-21T02:19:03,42.805,6.029,-0.021,0.027,-0.011,109.0,109.0,107.0,13.4,1505.2,321.0,-0.8,1.8,2470.942,13.29,0.034,322.1
2023-02-21T02:22:03,42.805,6.029,-0.015,0.016,0.004,110.0,109.0,106.0,13.4,1505.2,323.6,-0.7,1.8,2470.925,13.29,0.021,316.9
2023-02-21T02:25:03,42.805,6.029,-0.014,-0.013,-0.03,109.0,107.0,106.0,13.3,1505.2,327.4,-0.8,1.8,2470.951,13.29,0.019,227.1
2023-02-21T02:28:03,42.805,6.029,-0.021,0.014,0.003,110.0,110.0,109.0,13.4,1505.2,329.8,-0.7,1.8,2470.956,13.29,0.025,303.7
2023-02-21T02:31:03,42.805,6.029,0.002,0.03,0.005,110.0,109.0,106.0,13.3,1505.2,332.6,-0.8,1.8,2470.925,13.29,0.03,3.8
2023-02-21T02:34:03,42.805,6.029,-0.018,0.03,-0.019,110.0,108.0,105.0,13.3,1505.2,330.4,-0.8,1.8,2470.921,13.29,0.034,329.0
2023-02-21T02:37:03,42.805,6.029,-0.023,0.022,-0.005,110.0,109.0,105.0,13.4,1505.2,317.7,-0.8,1.8,2470.953,13.29,0.031,313.7
2023-02-21T02:40:03,42.805,6.029,-0.014,0.03,-0.013,111.0,107.0,105.0,13.4,1505.2,324.0,-0.7,1.8,2470.925,13.29,0.033,335.0
2023-02-21T02:43:03,42.805,6.029,-0.025,0.01,-0.043,109.0,108.0,107.0,13.3,1505.2,318.5,-0.7,1.8,2470.925,13.29,0.026,291.8
2023-02-21T02:46:03,42.805,6.029,-0.037,0.001,-0.061,109.0,108.0,106.0,13.4,1505.2,316.0,-0.7,1.8,2470.917,13.29,0.037,271.5
2023-02-21T02:49:03,42.805,6.029,-0.009,0.018,-0.015,108.0,109.0,105.0,13.3,1505.2,323.1,-0.7,1.8,2470.95,13.29,0.02,333.4
2023-02-21T02:52:03,42.805,6.029,-0.019,0.017,-0.013,110.0,108.0,107.0,13.3,1505.2,319.8,-0.8,1.8,2470.913,13.29,0.025,311.8
2023-02-21T02:55:03,42.805,6.029,-0.004,0.0,-0.031,110.0,107.0,106.0,13.3,1505.2,330.4,-0.8,1.8,2470.945,13.29,0.004,270.0
2023-02-21T02:58:03,42.805,6.029,-0.015,0.037,-0.008,109.0,107.0,105.0,13.4,1505.2,333.4,-0.8,1.8,2470.914,13.29,0.039,337.9
2023-02-21T03:04:03,42.805,6.029,-0.003,0.005,0.008,108.0,108.0,106.0,13.4,1505.2,319.7,-0.8,1.8,2471.001,13.29,0.005,329.0
2023-02-21T03:07:03,42.805,6.029,-0.014,0.002,-0.018,110.0,108.0,107.0,13.4,1505.2,331.7,-0.8,1.8,2470.965,13.29,0.014,278.1
2023-02-21T03:10:03,42.805,6.029,-0.025,0.015,-0.025,108.0,108.0,107.0,13.4,1505.2,333.0,-0.8,1.8,2471.011,13.29,0.029,301.0
2023-02-21T03:13:03,42.805,6.029,-0.034,0.006,-0.021,109.0,107.0,107.0,13.4,1505.2,334.2,-0.8,1.8,2471.0,13.29,0.034,280.0
2023-02-21T03:16:03,42.805,6.029,-0.015,0.038,-0.025,109.0,109.0,106.0,13.4,1505.2,327.9,-0.8,1.8,2471.006,13.29,0.04,338.5
2023-02-21T03:19:03,42.805,6.029,-0.025,0.005,-0.028,109.0,109.0,106.0,13.3,1505.2,333.8,-0.8,1.8,2470.965,13.29,0.025,281.3
2023-02-21T03:22:03,42.805,6.029,-0.005,0.015,0.003,109.0,109.0,105.0,13.3,1505.2,326.5,-0.7,1.8,2470.959,13.29,0.015,341.6
2023-02-21T03:25:03,42.805,6.029,0.001,0.007,-0.006,111.0,108.0,106.0,13.3,1505.2,334.3,-0.8,1.8,2470.953,13.29,0.007,8.1
2023-02-21T03:28:03,42.805,6.029,-0.015,0.002,-0.007,107.0,109.0,106.0,13.3,1505.2,315.5,-0.8,1.8,2470.975,13.29,0.015,277.6
2023-02-21T03:31:03,42.805,6.029,0.006,0.004,-0.007,109.0,109.0,106.0,13.4,1505.2,321.8,-0.8,1.8,2470.993,13.29,0.007,56.3
2023-02-21T03:34:03,42.805,6.029,-0.028,0.0,0.006,110.0,109.0,105.0,13.3,1505.2,317.4,-0.7,1.8,2470.955,13.29,0.028,270.0
2023-02-21T03:37:03,42.805,6.029,0.004,0.009,-0.012,109.0,108.0,106.0,13.3,1505.2,328.4,-0.8,1.8,2470.977,13.29,0.009,24.0
2023-02-21T03:40:03,42.805,6.029,-0.025,0.0,-0.028,110.0,109.0,106.0,13.3,1505.2,323.2,-0.8,1.8,2470.979,13.29,0.025,270.0
2023-02-21T03:43:03,42.805,6.029,-0.009,0.008,-0.016,109.0,109.0,106.0,13.3,1505.2,322.0,-0.8,1.8,2471.018,13.29,0.012,311.6
2023-02-21T03:46:03,42.805,6.029,-0.032,0.011,-0.022,110.0,108.0,106.0,13.4,1505.2,318.9,-0.7,1.8,2470.974,13.29,0.033,289.0
2023-02-21T03:49:03,42.805,6.029,-0.03,0.013,-0.005,109.0,110.0,107.0,13.4,1505.2,321.4,-0.7,1.8,2470.989,13.29,0.032,293.4
2023-02-21T03:52:03,42.805,6.029,-0.038,0.017,-0.042,110.0,108.0,105.0,13.4,1505.2,315.0,-0.8,1.8,2470.975,13.29,0.041,294.1
2023-02-21T03:55:03,42.805,6.029,-0.02,0.019,-0.001,111.0,108.0,106.0,13.3,1505.2,315.0,-0.7,1.8,2471.003,13.29,0.027,313.5
2023-02-21T03:58:03,42.805,6.029,-0.011,0.027,-0.02,109.0,110.0,106.0,13.4,1505.2,331.6,-0.7,1.8,2470.986,13.29,0.029,337.8
2023-02-21T04:04:03,42.805,6.029,0.001,0.011,-0.039,109.0,107.0,106.0,13.4,1505.2,328.2,-0.8,1.8,2471.018,13.29,0.011,5.2
2023-02-21T04:07:03,42.805,6.029,-0.019,0.007,-0.025,109.0,108.0,105.0,13.4,1505.2,333.4,-0.7,1.9,2471.041,13.29,0.02,290.2
2023-02-21T04:10:03,42.805,6.029,-0.022,0.013,-0.008,108.0,107.0,105.0,13.4,1505.2,337.3,-0.7,1.8,2471.009,13.29,0.025,300.6
2023-02-21T04:13:03,42.805,6.029,-0.022,0.001,-0.021,109.0,107.0,106.0,13.4,1505.2,318.8,-0.8,1.8,2471.014,13.29,0.022,272.6
2023-02-21T04:16:03,42.805,6.029,-0.019,0.0,-0.014,109.0,109.0,107.0,13.4,1505.2,321.4,-0.8,1.8,2471.037,13.29,0.019,270.0
2023-02-21T04:19:03,42.805,6.029,-0.024,0.005,-0.034,109.0,108.0,106.0,13.3,1505.2,323.3,-0.8,1.8,2471.025,13.29,0.024,281.8
2023-02-21T04:22:03,42.805,6.029,-0.029,0.003,-0.005,109.0,107.0,106.0,13.4,1505.2,326.0,-0.7,1.8,2471.046,13.29,0.029,275.9
2023-02-21T04:25:03,42.805,6.029,-0.025,0.0,-0.019,109.0,109.0,105.0,13.3,1505.2,333.0,-0.7,1.8,2471.019,13.29,0.025,270.0
2023-02-21T04:28:03,42.805,6.029,-0.026,0.002,-0.018,110.0,110.0,107.0,13.4,1505.2,323.3,-0.8,1.8,2471.055,13.29,0.026,274.4
2023-02-21T04:31:03,42.805,6.029,-0.016,0.006,-0.002,109.0,110.0,105.0,13.4,1505.2,332.5,-0.8,1.8,2471.017,13.29,0.017,290.6
2023-02-21T04:34:03,42.805,6.029,-0.014,0.006,-0.053,108.0,107.0,106.0,13.3,1505.2,338.3,-0.8,1.8,2471.058,13.29,0.015,293.2
2023-02-21T04:37:03,42.805,6.029,-0.012,0.017,-0.003,109.0,109.0,106.0,13.3,1505.2,328.3,-0.8,1.8,2471.06,13.29,0.02,324.8
2023-02-21T04:40:03,42.805,6.029,-0.013,0.007,-0.032,109.0,107.0,106.0,13.3,1505.2,323.1,-0.7,1.8,2471.012,13.29,0.014,298.3
2023-02-21T04:43:03,42.805,6.029,-0.03,-0.005,0.001,110.0,109.0,105.0,13.4,1505.2,326.0,-0.7,1.8,2471.064,13.29,0.03,260.5
2023-02-21T04:46:03,42.805,6.029,-0.006,0.018,0.0,110.0,109.0,106.0,13.4,1505.2,325.7,-0.8,1.8,2471.053,13.29,0.018,341.6
2023-02-21T04:49:03,42.805,6.029,-0.029,0.022,0.018,108.0,108.0,106.0,13.4,1505.2,333.4,-0.8,1.8,2471.074,13.29,0.036,307.2
2023-02-21T04:52:03,42.805,6.029,-0.035,0.014,-0.064,110.0,107.0,106.0,13.4,1505.2,330.4,-0.8,1.8,2471.075,13.29,0.037,291.8
2023-02-21T04:55:03,42.805,6.029,-0.028,0.023,0.003,109.0,107.0,106.0,13.4,1505.2,319.3,-0.8,1.8,2471.054,13.29,0.036,309.4
2023-02-21T04:58:03,42.805,6.029,-0.025,-0.002,-0.034,109.0,107.0,105.0,13.4,1505.2,318.2,-0.8,1.8,2471.064,13.29,0.025,265.4
2023-02-21T05:04:03,42.805,6.029,-0.028,0.023,-0.007,110.0,108.0,106.0,13.4,1505.2,331.6,-0.7,1.8,2471.127,13.29,0.036,309.4
2023-02-21T05:07:03,42.805,6.029,-0.026,0.007,0.0,109.0,109.0,108.0,13.4,1505.2,330.0,-0.8,1.8,2471.157,13.29,0.026,285.1
2023-02-21T05:10:03,42.805,6.029,-0.015,0.003,0.0,109.0,110.0,107.0,13.4,1505.2,321.9,-0.8,1.8,2471.085,13.29,0.015,281.3
2023-02-21T05:13:03,42.805,6.029,-0.031,0.012,-0.03,109.0,107.0,107.0,13.4,1505.2,332.1,-0.8,1.8,2471.094,13.29,0.033,291.2
2023-02-21T05:16:03,42.805,6.029,-0.06,0.013,-0.04,110.0,108.0,106.0,13.4,1505.2,322.9,-0.8,1.8,2471.122,13.29,0.061,282.2
2023-02-21T05:19:03,42.805,6.029,0.0,0.008,-0.006,109.0,108.0,106.0,13.4,1505.2,328.7,-0.8,1.8,2471.114,13.29,0.008,0.0
2023-02-21T05:22:03,42.805,6.029,-0.04,0.023,-0.008,111.0,108.0,105.0,13.4,1505.2,324.7,-0.7,1.8,2471.11,13.29,0.046,299.9
2023-02-21T05:25:03,42.805,6.029,-0.021,0.027,-0.028,109.0,108.0,106.0,13.4,1505.2,333.4,-0.8,1.8,2471.149,13.29,0.034,322.1
2023-02-21T05:28:03,42.805,6.029,-0.019,0.011,-0.012,109.0,108.0,106.0,13.4,1505.2,339.7,-0.8,1.8,2471.122,13.29,0.021,300.1
2023-02-21T05:31:03,42.805,6.029,-0.032,0.007,0.007,111.0,109.0,106.0,13.3,1505.2,325.4,-0.8,1.8,2471.134,13.29,0.032,282.3
2023-02-21T05:34:03,42.805,6.029,-0.02,0.012,-0.039,110.0,109.0,106.0,13.4,1505.2,329.4,-0.7,1.8,2471.152,13.29,0.023,301.0
2023-02-21T05:37:03,42.805,6.029,-0.013,0.002,0.008,109.0,108.0,105.0,13.4,1505.2,320.9,-0.7,1.8,2471.133,13.29,0.013,278.7
2023-02-21T05:40:03,42.805,6.029,-0.037,0.022,-0.014,109.0,109.0,106.0,13.4,1505.2,328.3,-0.8,1.8,2471.137,13.29,0.043,300.7
2023-02-21T05:43:03,42.805,6.029,-0.026,0.012,-0.013,111.0,108.0,107.0,13.4,1505.2,331.6,-0.7,1.8,2471.109,13.29,0.028,294.8
2023-02-21T05:46:03,42.805,6.029,-0.036,0.0,0.005,110.0,109.0,106.0,13.4,1505.2,315.0,-0.8,1.8,2471.141,13.29,0.036,270.0
2023-02-21T05:49:03,42.805,6.029,-0.031,-0.007,-0.031,110.0,109.0,106.0,13.4,1505.2,321.3,-0.8,1.8,2471.139,13.29,0.031,257.3
2023-02-21T05:52:03,42.805,6.029,-0.012,0.021,-0.011,109.0,109.0,107.0,13.4,1505.2,323.3,-0.8,1.8,2471.181,13.29,0.024,330.3
2023-02-21T05:55:03,42.805,6.029,-0.014,0.018,-0.028,109.0,108.0,108.0,13.3,1505.2,319.8,-0.8,1.8,2471.138,13.29,0.022,322.1
2023-02-21T05:58:03,42.805,6.029,-0.047,0.01,-0.005,110.0,109.0,106.0,13.3,1505.2,330.6,-0.8,1.8,2471.148,13.29,0.048,282.0
2023-02-21T06:04:03,42.805,6.029,-0.057,0.01,-0.028,109.0,108.0,107.0,13.4,1505.2,330.5,-0.8,1.9,2471.227,13.29,0.057,279.9
2023-02-21T06:07:03,42.805,6.029,-0.035,0.018,-0.026,108.0,108.0,106.0,13.3,1505.2,315.5,-0.8,1.8,2471.2,13.29,0.039,297.2
2023-02-21T06:10:03,42.805,6.029,-0.027,0.014,-0.016,110.0,108.0,106.0,13.4,1505.2,336.5,-0.8,1.8,2471.231,13.29,0.03,297.4
2023-02-21T06:13:03,42.805,6.029,-0.044,0.009,-0.013,108.0,109.0,106.0,13.4,1505.2,338.9,-0.8,1.8,2471.197,13.29,0.044,281.6
2023-02-21T06:16:03,42.805,6.029,-0.03,-0.006,-0.03,108.0,108.0,106.0,13.4,1505.2,322.3,-0.7,1.8,2471.229,13.29,0.03,258.7
2023-02-21T06:19:03,42.805,6.029,-0.042,0.017,-0.031,108.0,109.0,106.0,13.3,1505.2,318.7,-0.7,1.8,2471.244,13.29,0.045,292.0
2023-02-21T06:22:03,42.805,6.029,-0.052,0.003,-0.016,109.0,108.0,106.0,13.4,1505.2,321.9,-0.8,1.8,2471.19,13.29,0.052,273.3
2023-02-21T06:25:03,42.805,6.029,-0.033,0.014,-0.041,109.0,107.0,106.0,13.4,1505.2,319.9,-0.8,1.8,2471.208,13.29,0.035,293.0
2023-02-21T06:28:03,42.805,6.029,-0.031,0.025,-0.015,109.0,108.0,106.0,13.4,1505.2,327.9,-0.7,1.8,2471.205,13.29,0.039,308.9
2023-02-21T06:31:03,42.805,6.029,0.001,0.01,-0.03,110.0,110.0,105.0,13.3,1505.2,331.3,-0.8,1.8,2471.217,13.29,0.01,5.7
2023-02-21T06:34:03,42.805,6.029,-0.025,0.01,-0.029,109.0,109.0,106.0,13.4,1505.2,338.0,-0.8,1.8,2471.248,13.29,0.026,291.8
2023-02-21T06:37:03,42.805,6.029,-0.039,0.01,-0.017,109.0,108.0,107.0,13.4,1505.2,326.3,-0.8,1.8,2471.226,13.29,0.04,284.4
2023-02-21T06:40:03,42.805,6.029,-0.043,-0.004,-0.035,109.0,109.0,107.0,13.4,1505.2,319.9,-0.7,1.8,2471.185,13.29,0.043,264.7
2023-02-21T06:43:03,42.805,6.029,-0.021,0.014,-0.025,110.0,108.0,107.0,13.3,1505.2,323.8,-0.8,1.8,2471.215,13.29,0.025,303.7
2023-02-21T06:46:03,42.805,6.029,-0.011,0.012,-0.008,108.0,109.0,106.0,13.4,1505.2,328.7,-0.8,1.8,2471.216,13.29,0.016,317.5
2023-02-21T06:49:03,42.805,6.029,-0.054,0.02,-0.024,109.0,109.0,106.0,13.4,1505.2,321.2,-0.8,1.8,2471.22,13.29,0.057,290.3
2023-02-21T06:52:03,42.805,6.029,-0.033,-0.001,-0.02,111.0,108.0,105.0,13.4,1505.2,337.4,-0.8,1.8,2471.233,13.29,0.033,268.3
2023-02-21T06:55:03,42.805,6.029,-0.055,0.027,-0.054,109.0,108.0,105.0,13.3,1505.2,331.2,-0.8,1.9,2471.247,13.29,0.061,296.1
2023-02-21T06:58:03,42.805,6.029,-0.032,0.019,-0.003,109.0,108.0,106.0,13.4,1505.2,326.3,-0.8,1.8,2471.197,13.29,0.037,300.7
2023-02-21T07:04:03,42.805,6.029,-0.014,0.017,-0.024,108.0,107.0,106.0,13.4,1505.2,326.9,-0.8,1.8,2471.28,13.29,0.022,320.5
2023-02-21T07:07:03,42.805,6.029,-0.043,0.001,-0.025,109.0,108.0,106.0,13.4,1505.2,315.5,-0.7,1.8,2471.282,13.29,0.043,271.3
2023-02-21T07:10:03,42.805,6.029,-0.019,0.013,-0.005,109.0,108.0,106.0,13.4,1505.2,317.1,-0.8,1.8,2471.248,13.29,0.023,304.4
2023-02-21T07:13:03,42.805,6.029,-0.049,0.018,-0.025,109.0,107.0,106.0,13.4,1505.2,323.4,-0.8,1.8,2471.248,13.29,0.052,290.2
2023-02-21T07:16:03,42.805,6.029,-0.048,0.011,-0.027,109.0,109.0,105.0,13.3,1505.2,319.4,-0.8,1.8,2471.252,13.29,0.049,282.9
2023-02-21T07:19:03,42.805,6.029,-0.052,0.023,-0.025,110.0,109.0,106.0,13.4,1505.2,334.2,-0.8,1.9,2471.233,13.29,0.056,293.9
2023-02-21T07:22:03,42.805,6.029,-0.041,0.016,0.019,109.0,109.0,106.0,13.4,1505.2,317.3,-0.8,1.8,2471.247,13.29,0.044,291.3
2023-02-21T07:25:03,42.805,6.029,-0.03,0.01,-0.007,108.0,108.0,106.0,13.3,1505.2,321.8,-0.8,1.8,2471.25,13.29,0.031,288.4
2023-02-21T07:28:03,42.805,6.029,-0.012,0.02,-0.01,109.0,108.0,106.0,13.3,1505.2,339.2,-0.7,1.8,2471.272,13.29,0.023,329.0
2023-02-21T07:31:03,42.805,6.029,-0.03,0.018,-0.028,110.0,109.0,106.0,13.4,1505.2,336.8,-0.8,1.8,2471.28,13.29,0.034,301.0
2023-02-21T07:34:03,42.805,6.029,-0.008,-0.005,-0.014,109.0,108.0,107.0,13.4,1505.2,334.8,-0.8,1.8,2471.255,13.29,0.009,238.0
2023-02-21T07:37:03,42.805,6.029,-0.021,0.021,-0.053,108.0,108.0,106.0,13.4,1505.2,336.1,-0.8,1.8,2471.261,13.29,0.029,315.0
2023-02-21T07:40:03,42.805,6.029,-0.027,0.011,-0.008,109.0,108.0,107.0,13.4,1505.2,331.2,-0.8,1.8,2471.248,13.29,0.029,292.2
2023-02-21T07:43:03,42.805,6.029,-0.017,0.008,-0.005,111.0,111.0,107.0,13.4,1505.2,330.0,-0.8,1.8,2471.243,13.29,0.018,295.2
2023-02-21T07:46:03,42.805,6.029,-0.017,0.005,-0.035,109.0,109.0,105.0,13.4,1505.2,331.9,-0.8,1.8,2471.277,13.29,0.017,286.4
2023-02-21T07:49:03,42.805,6.029,-0.03,0.012,-0.023,110.0,109.0,107.0,13.4,1505.2,333.8,-0.7,1.8,2471.253,13.29,0.032,291.8
2023-02-21T07:52:03,42.805,6.029,-0.034,0.025,-0.003,110.0,108.0,106.0,13.4,1505.2,333.0,-0.8,1.8,2471.253,13.29,0.042,306.3
2023-02-21T07:55:03,42.805,6.029,-0.039,0.02,-0.008,110.0,107.0,106.0,13.4,1505.2,327.0,-0.7,1.8,2471.252,13.29,0.043,297.1
2023-02-21T07:58:03,42.805,6.029,-0.034,0.002,-0.025,109.0,108.0,106.0,13.4,1505.2,320.2,-0.8,1.8,2471.272,13.29,0.034,273.4
2023-02-21T08:04:03,42.805,6.029,-0.048,0.001,-0.049,108.0,108.0,105.0,13.4,1505.2,319.0,-0.8,1.8,2471.258,13.29,0.048,271.2
2023-02-21T08:07:03,42.805,6.029,-0.016,0.003,-0.039,108.0,108.0,105.0,13.4,1505.2,317.4,-0.7,1.8,2471.321,13.29,0.016,280.6
2023-02-21T08:10:03,42.805,6.029,-0.036,0.013,-0.005,109.0,108.0,106.0,13.3,1505.2,326.5,-0.8,1.8,2471.307,13.29,0.038,289.9
2023-02-21T08:13:03,42.805,6.029,-0.034,-0.001,0.012,109.0,108.0,107.0,13.4,1505.2,320.0,-0.8,1.8,2471.241,13.29,0.034,268.3
2023-02-21T08:16:03,42.805,6.029,-0.036,0.026,0.007,108.0,108.0,107.0,13.4,1505.2,325.7,-0.8,1.8,2471.295,13.29,0.044,305.8
2023-02-21T08:19:03,42.805,6.029,-0.009,-0.003,-0.017,110.0,108.0,106.0,13.4,1505.2,324.0,-0.7,1.8,2471.252,13.29,0.009,251.6
2023-02-21T08:22:03,42.805,6.029,-0.015,0.018,0.001,110.0,108.0,106.0,13.4,1505.2,337.7,-0.8,1.8,2471.275,13.29,0.023,320.2
2023-02-21T08:25:03,42.805,6.029,-0.028,0.009,-0.019,109.0,108.0,107.0,13.4,1505.2,319.2,-0.7,1.8,2471.259,13.29,0.029,287.8
2023-02-21T08:28:03,42.805,6.029,-0.021,0.003,0.0,109.0,108.0,106.0,13.4,1505.2,320.4,-0.8,1.8,2471.293,13.29,0.021,278.1
2023-02-21T08:31:03,42.805,6.029,-0.021,0.016,-0.034,109.0,109.0,106.0,13.3,1505.2,330.9,-0.7,1.8,2471.285,13.29,0.026,307.3
2023-02-21T08:34:03,42.805,6.029,-0.018,0.013,-0.01,109.0,108.0,106.0,13.4,1505.2,329.8,-0.8,1.8,2471.276,13.29,0.022,305.8
2023-02-21T08:37:03,42.805,6.029,-0.026,0.008,-0.019,108.0,107.0,105.0,13.4,1505.2,328.5,-0.8,1.8,2471.278,13.29,0.027,287.1
2023-02-21T08:40:03,42.805,6.029,-0.027,0.037,-0.028,108.0,107.0,107.0,13.4,1505.2,330.1,-0.7,1.8,2471.282,13.29,0.045,323.9
2023-02-21T08:43:03,42.805,6.029,-0.014,-0.009,-0.056,109.0,108.0,106.0,13.3,1505.2,332.1,-0.7,1.8,2471.275,13.29,0.016,237.3
2023-02-21T08:46:03,42.805,6.029,-0.018,0.024,-0.011,109.0,108.0,107.0,13.4,1505.2,332.2,-0.8,1.8,2471.25,13.29,0.03,323.1
2023-02-21T08:49:03,42.805,6.029,-0.033,0.011,-0.014,108.0,109.0,111.0,13.4,1505.2,320.9,-0.8,1.8,2471.265,13.29,0.034,288.4
2023-02-21T08:52:03,42.805,6.029,-0.033,0.005,0.001,109.0,107.0,105.0,13.4,1505.2,332.5,-0.8,1.8,2471.287,13.29,0.033,278.6
2023-02-21T08:55:03,42.805,6.029,-0.029,0.011,-0.015,109.0,107.0,106.0,13.3,1505.2,337.4,-0.8,1.8,2471.24,13.29,0.031,290.8
2023-02-21T08:58:03,42.805,6.029,-0.012,0.027,-0.016,109.0,106.0,105.0,13.4,1505.2,334.7,-0.8,1.8,2471.29,13.29,0.029,336.0
2023-02-21T09:04:03,42.805,6.029,-0.016,0.012,-0.034,109.0,107.0,106.0,13.3,1505.2,336.2,-0.7,1.8,2471.311,13.29,0.02,306.9
2023-02-21T09:07:03,42.805,6.029,-0.021,0.016,-0.002,109.0,108.0,106.0,13.4,1505.2,332.1,-0.8,1.8,2471.333,13.29,0.026,307.3
2023-02-21T09:10:03,42.805,6.029,-0.013,0.018,-0.019,108.0,108.0,108.0,13.4,1505.2,333.4,-0.8,1.8,2471.28,13.29,0.022,324.2
2023-02-21T09:13:03,42.805,6.029,-0.02,0.01,0.01,110.0,108.0,107.0,13.4,1505.2,315.5,-0.8,1.8,2471.276,13.29,0.022,296.6
2023-02-21T09:16:03,42.805,6.029,-0.025,0.013,-0.033,108.0,107.0,107.0,13.3,1505.2,325.4,-0.8,1.8,2471.268,13.29,0.028,297.5
2023-02-21T09:19:03,42.805,6.029,-0.029,0.027,-0.017,108.0,107.0,106.0,13.4,1505.2,327.1,-0.8,1.8,2471.322,13.29,0.039,313.0
2023-02-21T09:22:03,42.805,6.029,-0.012,0.012,-0.013,108.0,106.0,106.0,13.4,1505.2,339.1,-0.8,1.8,2471.292,13.29,0.016,315.0
2023-02-21T09:25:03,42.805,6.029,-0.04,0.012,-0.003,108.0,107.0,107.0,13.4,1505.2,322.5,-0.7,1.8,2471.258,13.29,0.041,286.7
2023-02-21T09:28:03,42.805,6.029,-0.041,0.002,-0.037,109.0,108.0,106.0,13.4,1505.2,324.1,-0.7,1.8,2471.244,13.29,0.041,272.8
2023-02-21T09:31:03,42.805,6.029,-0.008,0.018,0.004,109.0,107.0,106.0,13.3,1505.2,327.5,-0.8,1.8,2471.244,13.29,0.019,336.0
2023-02-21T09:34:03,42.805,6.029,-0.016,-0.008,-0.004,109.0,110.0,105.0,13.4,1505.2,325.8,-0.8,1.8,2471.271,13.29,0.017,243.4
2023-02-21T09:37:03,42.805,6.029,-0.031,0.034,-0.037,109.0,108.0,106.0,13.3,1505.2,331.6,-0.8,1.8,2471.257,13.29,0.046,317.6
2023-02-21T09:40:03,42.805,6.029,-0.052,0.01,-0.028,108.0,108.0,105.0,13.4,1505.2,330.9,-0.7,1.8,2471.2,13.29,0.052,280.9
2023-02-21T09:43:03,42.805,6.029,-0.04,0.009,-0.005,109.0,108.0,105.0,13.3,1505.2,323.1,-0.8,1.8,2471.266,13.29,0.041,282.7
2023-02-21T09:46:03,42.805,6.029,-0.026,0.005,-0.037,110.0,109.0,106.0,13.3,1505.2,322.5,-0.8,1.8,2471.282,13.29,0.026,280.9
2023-02-21T09:49:03,42.805,6.029,-0.027,0.007,-0.032,109.0,109.0,105.0,13.4,1505.2,329.3,-0.8,1.8,2471.23,13.29,0.027,284.5
2023-02-21T09:52:03,42.805,6.029,-0.02,0.002,0.0,110.0,108.0,106.0,13.4,1505.2,329.8,-0.7,1.9,2471.259,13.29,0.02,275.7
2023-02-21T09:55:03,42.805,6.029,-0.015,0.009,-0.042,109.0,108.0,105.0,13.4,1505.2,330.7,-0.8,1.8,2471.247,13.29,0.017,301.0